[Iaude] MPEC J293: 2024 JQ16 [a=1.46,e=0.30,i=8.3,H=26.8]
    mpec at cfa.harvard.edu 
    mpec at cfa.harvard.edu
       
    Mon May 13 06:56:32 EDT 2024
    
    
  
M.P.E.C. 2024-J293                                 Issued 2024 May 13, 10:54 UT
     The Minor Planet Electronic Circulars contain information on unusual
         minor planets, routine data on comets and natural satellites,
         and occasional editorial announcements.  They are published
    on behalf of Division F of the International Astronomical Union by the
          Minor Planet Center, Smithsonian Astrophysical Observatory,
                          Cambridge, MA 02138, U.S.A.
			  
             Prepared using the Tamkin Foundation Computer Network
                              MPC at CFA.HARVARD.EDU
            URL https://www.minorplanetcenter.net/    ISSN 1523-6714
                                   2024 JQ16                                    
Observations:
     K24J16Q*1C2024 05 12.37348216 40 46.697+35 33 12.20         20.59GVEJ293G96
     K24J16Q 1C2024 05 12.37875116 40 52.352+35 31 22.33         20.18GVEJ293G96
     K24J16Q 1C2024 05 12.38401516 40 57.925+35 29 32.68         20.18GVEJ293G96
     K24J16Q 1C2024 05 12.38928616 41 03.462+35 27 43.88         20.27GVEJ293G96
     K24J16Q  C2024 05 12.40159516 41 15.190+35 23 10.88         20.3 GVEJ293H01
     K24J16Q  C2024 05 12.40538116 41 19.261+35 21 50.93         20.3 GVEJ293H01
     K24J16Q KC2024 05 12.40833816 41 23.892+35 21 02.20         20.46GVEJ293I52
     K24J16Q KC2024 05 12.40935416 41 24.972+35 20 40.96         20.35GVEJ293I52
     K24J16Q KC2024 05 12.41036316 41 26.041+35 20 19.43         20.27GVEJ293I52
     K24J16Q KC2024 05 12.41137916 41 27.132+35 19 58.08         20.15GVEJ293I52
     K24J16Q  C2024 05 12.41546116 41 30.128+35 18 17.07         20.2 GVEJ293H01
     K24J16Q  C2024 05 12.42229116 41 37.501+35 15 51.47         20.4 GVEJ293H01
     K24J16Q KC2024 05 12.44817016 42 06.872+35 06 51.30         20.09GVEJ293I52
     K24J16Q KC2024 05 12.44918316 42 07.960+35 06 30.20         20.54GVEJ293I52
     K24J16Q KC2024 05 12.45019216 42 09.054+35 06 08.42               VEJ293I52
     K24J16Q KC2024 05 12.45120116 42 10.177+35 05 46.18         20.49GVEJ293I52
     K24J16Q 1C2024 05 12.88027 16 51 34.89 +32 25 21.0          20.5 VXEJ293033
     K24J16Q 1C2024 05 12.88094 16 51 35.69 +32 25 06.0          20.4 VXEJ293033
     K24J16Q 1C2024 05 12.88160 16 51 36.49 +32 24 51.1          20.6 VXEJ293033
     K24J16Q KB2024 05 13.08179416 55 30.09 +31 07 32.8          19.7 GXEJ293I93
     K24J16Q KB2024 05 13.08936316 55 38.54 +31 04 28.3          19.9 GXEJ293I93
     K24J16Q KC2024 05 13.21290316 58 33.17 +30 14 05.7          20.7 GVEJ293H21
     K24J16Q KC2024 05 13.21676216 58 37.58 +30 12 32.2          20.5 GVEJ293H21
     K24J16Q KC2024 05 13.22062216 58 41.96 +30 10 58.0          21.0 GVEJ293H21
     K24J16Q KC2024 05 13.22467616 58 46.59 +30 09 19.3          20.3 GVEJ293H21
     K24J16Q  C2024 05 13.38677417 01 56.690+29 01 54.63         20.2 GVEJ293H01
     K24J16Q 1C2024 05 13.39204317 02 04.110+28 59 52.98               VEJ293G96
     K24J16Q  C2024 05 13.39204517 02 02.536+28 59 38.27         20.2 GVEJ293H01
     K24J16Q 1C2024 05 13.39729017 02 09.985+28 57 35.32         19.98GVEJ293G96
     K24J16Q  C2024 05 13.40006017 02 11.466+28 56 09.81         20.5 GVEJ293H01
     K24J16Q 1C2024 05 13.40253417 02 15.706+28 55 20.89         20.72GVEJ293G96
     K24J16Q  C2024 05 13.40720917 02 19.436+28 53 03.24         20.2 GVEJ293H01
Observer details:
033 Karl Schwarzschild Observatory, Tautenburg.  Observers C. Heogner, F.
    Ludwig, M. Hartmann, B. Stecklum.  Measurer B. Stecklum.  1.34-m f/3
    Schmidt + CCD.
G96 Mt. Lemmon Survey.  Observer K. W. Wierzchos.  Measurers T. Beuden, V. F.
    Carvajal, D. Fay, J. B. Fazekas, D. C. Fuls, A. R. Gibbs, A. D. Grauer, H.
    Groeller, J. K. Hogan, R. A. Kowalski, S. M. Larson, G. J. Leonard, D.
    Rankin, R. L. Seaman, F. C. Shelly, K. W. Wierzchos.  1.5-m reflector +
    10K CCD.
H01 Magdalena Ridge Observatory, Socorro.  Observers W. H. Ryan, E. V. Ryan.
    Measurer W. H. Ryan.  2.4-m f/8.9 Ritchey-Chretien + CCD.
H21 Astronomical Research Observatory, Westfield.  Observer R. Holmes.
    Measurers T. Linder, R. Holmes, L. Horn.  0.76-m f/3.0 astrograph + CCD.
I52 Steward Observatory, Mt. Lemmon Station.  Observer T. Beuden.  Measurers
    T. Beuden, V. F. Carvajal, D. Fay, J. B. Fazekas, D. C. Fuls, A. R. Gibbs,
    A. D. Grauer, H. Groeller, J. K. Hogan, R. A. Kowalski, S. M. Larson, G.
    J. Leonard, D. Rankin, R. L. Seaman, F. C. Shelly, K. W. Wierzchos.  1.0-m
    prime focus + CCD.
I93 St Pardon de Conques.  Observer F. Losse.  0.40-m f/3.7 reflector + CMO.
Orbital elements:
2024 JQ16                                                Earth MOID = 0.0140 AU
Epoch 2024 Mar. 31.0 TT = JDT 2460400.5                 Veres                   
M 337.88144              (2000.0)            P               Q                  
n   0.55670970     Peri.  169.66830     -0.65530128     +0.74517916             
a   1.4634690      Node    59.26748     -0.70289398     -0.54160960             
e   0.3013643      Incl.    8.27053     -0.27662301     -0.38905921             
P   1.77           H   26.86          G   0.15           U   7                  
Residuals in seconds of arc
240512 G96  0.4-  0.8+    240512 H01  0.0   0.1-    240513 H21  0.1+  0.2+
240512 G96  0.2+  0.2+    240512 I52  0.0   0.2-    240513 H21  0.2-  0.1-
240512 G96  0.1-  0.0     240512 I52  0.2-  0.5+    240513 H21  0.0   0.0
240512 G96 (1.0-  1.2+)   240512 I52  0.3-  0.5+    240513 H01  0.0   0.2-
240512 H01  0.1+  0.1-    240512 I52  0.0   0.1+    240513 G96 (0.9-  1.9+)
240512 H01  0.1+  0.0     240512 033  0.2-  0.1+    240513 H01  0.1-  0.1+
240512 I52  0.0   0.1-    240512 033  0.1-  0.2+    240513 G96  0.1-  0.2+
240512 I52  0.1-  0.1+    240512 033  0.1+  0.1+    240513 H01  0.0   0.0
240512 I52  0.2-  0.1-    240513 I93  0.2+  0.7+    240513 G96 (1.3-  2.0+)
240512 I52  0.2-  0.1+    240513 I93  0.5-  0.2+    240513 H01  0.0   0.1-
240512 H01  0.2+  0.1-    240513 H21  0.1+  0.0
Ephemeris:
2024 JQ16                a,e,i = 1.46, 0.30, 8                   q = 1.0224
Date    TT    R. A. (2000) Decl.     Delta      r    Elong.  Phase     V
2024 04 13    12 56 59.2 +58 04 27   0.1143  1.0520   112.6    61.6    24.5
...
2024 04 28    13 46 10.0 +58 18 10   0.06617 1.0283   107.2    69.3    23.5
...
2024 05 06    14 55 16.2 +53 57 11   0.04036 1.0230   109.5    68.3    22.3
...
2024 05 12    16 33 12.3 +37 35 50   0.02346 1.0226   121.4    57.5    20.8
2024 05 13    16 53 48.4 +31 42 03   0.02136 1.0229   125.1    53.9    20.5
2024 05 14    17 15 08.7 +24 24 09   0.01967 1.0232   129.2    50.0    20.2
...
2024 05 20    19 18 08.7 -28 15 59   0.02230 1.0268   131.6    47.4    20.4
...
2024 05 28    20 57 31.4 -51 48 20   0.04516 1.0362   119.3    58.5    22.3
...
2024 06 12    21 55 56.7 -59 24 06   0.09484 1.0669   120.6    55.0    23.9
M. P. C. Staff               (C) Copyright 2024 MPC           M.P.E.C. 2024-J293
    
    
More information about the Iaude
mailing list